When you browse on this site, cookies collect data to enhance your experience and personalize the content and advertising you see.
Visit our Privacy Policy to learn more. By continuing to use the site, you agree to this use of cookies and data.
  • En España
  • Lista de países
  • Para 7 días
  • Temperatura del agua
  • El tiempo en el mapa
  • Informadores
  • user-avatar
    Iniciar sesión

    Tiempo cada hora Middlesbrough

    Hoy, 17 Septiembre, Martes

    Tiempo Temperatura Precipitaciones Viento Presión Humedad
    00:00 +8°C° 0 mm 5 mps 766 mmHg 87%
    01:00 +8°C° 0 mm 5 mps 766 mmHg 87%
    02:00 +7°C° 0 mm 5 mps 766 mmHg 87%
    03:00 +7°C° 0 mm 5 mps 766 mmHg 88%
    04:00 +7°C° 0 mm 5 mps 766 mmHg 89%
    05:00 +6°C° 0 mm 4 mps 766 mmHg 89%
    06:00 +6°C° 0 mm 4 mps 767 mmHg 90%
    07:00 +8°C° 0 mm 5 mps 767 mmHg 83%
    08:00 +9°C° 0 mm 5 mps 767 mmHg 76%
    09:00 +10°C° 0 mm 5 mps 767 mmHg 69%
    10:00 +12°C° 0 mm 5 mps 768 mmHg 64%
    11:00 +13°C° 0 mm 5 mps 768 mmHg 59%
    12:00 +13°C° 0 mm 5 mps 768 mmHg 55%
    13:00 +13°C° 0 mm 5 mps 768 mmHg 55%
    14:00 +13°C° 0 mm 5 mps 768 mmHg 56%
    15:00 +13°C° 0 mm 5 mps 769 mmHg 56%
    16:00 +12°C° 0 mm 4 mps 769 mmHg 61%
    17:00 +11°C° 0 mm 4 mps 769 mmHg 67%
    18:00 +10°C° 0 mm 3 mps 769 mmHg 72%
    19:00 +9°C° 0 mm 3 mps 769 mmHg 74%
    20:00 +9°C° 0 mm 2 mps 770 mmHg 76%
    21:00 +9°C° 0 mm 1 mps 770 mmHg 78%
    22:00 +9°C° 0 mm 1 mps 770 mmHg 79%
    23:00 +8°C° 0 mm 1 mps 770 mmHg 79%

    Mañana, 18 Septiembre, Miércoles

    Tiempo Temperatura Precipitaciones Viento Presión Humedad
    00:00 +8°C° 0 mm 1 mps 770 mmHg 80%
    01:00 +8°C° 0 mm 1 mps 770 mmHg 80%
    02:00 +7°C° 0 mm 2 mps 770 mmHg 81%
    03:00 +7°C° 0 mm 2 mps 770 mmHg 81%
    04:00 +7°C° 0 mm 2 mps 770 mmHg 80%
    05:00 +7°C° 0 mm 2 mps 770 mmHg 80%
    06:00 +7°C° 0 mm 2 mps 770 mmHg 79%
    07:00 +8°C° 0 mm 2 mps 771 mmHg 76%
    08:00 +9°C° 0 mm 2 mps 771 mmHg 74%
    09:00 +10°C° 0 mm 2 mps 771 mmHg 71%
    10:00 +13°C° 0 mm 2 mps 771 mmHg 66%
    11:00 +15°C° 0 mm 2 mps 771 mmHg 60%
    12:00 +17°C° 0 mm 2 mps 771 mmHg 54%
    13:00 +17°C° 0 mm 2 mps 770 mmHg 56%
    14:00 +18°C° 0 mm 2 mps 770 mmHg 57%
    15:00 +18°C° 0 mm 2 mps 770 mmHg 59%
    16:00 +17°C° 0 mm 2 mps 770 mmHg 65%
    17:00 +16°C° 0 mm 2 mps 770 mmHg 72%
    18:00 +14°C° 0 mm 1 mps 770 mmHg 79%
    19:00 +14°C° 0 mm 1 mps 770 mmHg 81%
    20:00 +13°C° 0 mm 1 mps 771 mmHg 83%
    21:00 +12°C° 0 mm 2 mps 771 mmHg 86%
    22:00 +12°C° 0 mm 2 mps 771 mmHg 87%
    23:00 +12°C° 0 mm 2 mps 771 mmHg 88%

    Pasado mañana, 19 Septiembre, Jueves

    Tiempo Temperatura Precipitaciones Viento Presión Humedad
    00:00 +10°C° 0 mm 2 mps 771 mmHg 88%
    01:00 +10°C° 0 mm 2 mps 771 mmHg 88%
    02:00 +10°C° 0 mm 2 mps 771 mmHg 88%
    03:00 +10°C° 0 mm 2 mps 771 mmHg 88%
    04:00 +11°C° 0 mm 1 mps 771 mmHg 88%
    05:00 +11°C° 0 mm 1 mps 771 mmHg 88%
    06:00 +11°C° 0 mm 1 mps 771 mmHg 88%
    07:00 +13°C° 0 mm 1 mps 771 mmHg 83%
    08:00 +14°C° 0 mm 1 mps 771 mmHg 77%
    09:00 +16°C° 0 mm 1 mps 772 mmHg 72%
    10:00 +18°C° 0 mm 1 mps 772 mmHg 68%
    11:00 +19°C° 0 mm 1 mps 772 mmHg 64%
    12:00 +20°C° 0 mm 1 mps 771 mmHg 61%
    13:00 +21°C° 0 mm 1 mps 771 mmHg 60%
    14:00 +21°C° 0 mm 1 mps 771 mmHg 60%
    15:00 +21°C° 0 mm 1 mps 771 mmHg 60%
    16:00 +20°C° 0 mm 1 mps 771 mmHg 65%
    17:00 +19°C° 0 mm 1 mps 771 mmHg 71%
    18:00 +18°C° 0 mm 1 mps 771 mmHg 77%
    19:00 +16°C° 0 mm 1 mps 771 mmHg 80%
    20:00 +15°C° 0 mm 1 mps 771 mmHg 83%
    21:00 +14°C° 0 mm 1 mps 771 mmHg 86%
    22:00 +14°C° 0 mm 1 mps 771 mmHg 87%
    23:00 +14°C° 0 mm 1 mps 771 mmHg 88%

    20 Septiembre, Viernes

    Tiempo Temperatura Precipitaciones Viento Presión Humedad
    00:00 +13°C° 0 mm 1 mps 770 mmHg 89%
    01:00 +13°C° 0 mm 1 mps 770 mmHg 90%
    02:00 +13°C° 0 mm 1 mps 770 mmHg 90%
    03:00 +13°C° 0 mm 2 mps 770 mmHg 90%
    04:00 +12°C° 0 mm 2 mps 770 mmHg 91%
    05:00 +12°C° 0 mm 2 mps 769 mmHg 91%
    06:00 +12°C° 0 mm 2 mps 769 mmHg 92%
    07:00 +14°C° 0 mm 2 mps 769 mmHg 86%
    08:00 +15°C° 0 mm 2 mps 769 mmHg 80%
    09:00 +17°C° 0 mm 2 mps 769 mmHg 75%
    10:00 +18°C° 0 mm 3 mps 768 mmHg 70%
    11:00 +19°C° 0 mm 3 mps 768 mmHg 66%
    12:00 +20°C° 0 mm 4 mps 768 mmHg 62%
    13:00 +21°C° 0 mm 4 mps 767 mmHg 61%
    14:00 +21°C° 0 mm 4 mps 767 mmHg 61%
    15:00 +21°C° 0 mm 5 mps 766 mmHg 61%
    16:00 +20°C° 0 mm 5 mps 766 mmHg 66%
    17:00 +17°C° 0 mm 5 mps 766 mmHg 72%
    18:00 +16°C° 0 mm 5 mps 765 mmHg 78%
    19:00 +15°C° 0 mm 5 mps 765 mmHg 81%
    20:00 +14°C° 0 mm 5 mps 765 mmHg 85%
    21:00 +14°C° 0 mm 5 mps 764 mmHg 88%
    22:00 +13°C° 0 mm 5 mps 764 mmHg 86%
    23:00 +12°C° 0 mm 5 mps 764 mmHg 84%

    21 Septiembre, Sábado

    Tiempo Temperatura Precipitaciones Viento Presión Humedad
    00:00 +12°C° 0 mm 5 mps 763 mmHg 83%
    01:00 +10°C° 0 mm 5 mps 763 mmHg 83%
    02:00 +10°C° 0 mm 5 mps 762 mmHg 83%
    03:00 +10°C° 0 mm 5 mps 762 mmHg 84%
    04:00 +10°C° 0 mm 4 mps 761 mmHg 85%
    05:00 +10°C° 0 mm 4 mps 761 mmHg 87%
    06:00 +10°C° 0 mm 4 mps 760 mmHg 89%
    07:00 +12°C° 0 mm 5 mps 760 mmHg 80%
    08:00 +13°C° 0 mm 6 mps 759 mmHg 72%
    09:00 +15°C° 0 mm 7 mps 759 mmHg 64%
    10:00 +16°C° 0 mm 7 mps 758 mmHg 60%
    11:00 +17°C° 0 mm 7 mps 758 mmHg 57%
    12:00 +20°C° 0 mm 7 mps 757 mmHg 53%
    13:00 +20°C° 0 mm 7 mps 757 mmHg 53%
    14:00 +20°C° 0 mm 7 mps 756 mmHg 52%
    15:00 +21°C° 0 mm 7 mps 755 mmHg 52%
    16:00 +20°C° 0 mm 6 mps 755 mmHg 56%
    17:00 +19°C° 0 mm 6 mps 755 mmHg 60%
    18:00 +16°C° 0 mm 5 mps 754 mmHg 65%
    19:00 +16°C° 0 mm 5 mps 754 mmHg 66%
    20:00 +16°C° 0 mm 5 mps 754 mmHg 68%
    21:00 +15°C° 0 mm 5 mps 754 mmHg 69%
    22:00 +15°C° 0.1 mm 5 mps 753 mmHg 73%
    23:00 +15°C° 0.1 mm 5 mps 753 mmHg 77%

    22 Septiembre, Domingo

    Tiempo Temperatura Precipitaciones Viento Presión Humedad
    00:00 +16°C° 0.1 mm 5 mps 752 mmHg 80%
    01:00 +15°C° 0.5 mm 5 mps 752 mmHg 85%
    02:00 +15°C° 0.5 mm 4 mps 752 mmHg 89%
    03:00 +15°C° 0.5 mm 4 mps 751 mmHg 93%
    04:00 +15°C° 0 mm 5 mps 751 mmHg 93%
    05:00 +15°C° 0 mm 5 mps 751 mmHg 92%
    06:00 +15°C° 0 mm 6 mps 751 mmHg 91%
    07:00 +15°C° 0 mm 6 mps 752 mmHg 90%
    08:00 +16°C° 0 mm 6 mps 752 mmHg 88%
    09:00 +16°C° 0 mm 6 mps 752 mmHg 87%
    10:00 +17°C° 0.1 mm 6 mps 752 mmHg 80%
    11:00 +19°C° 0.1 mm 6 mps 752 mmHg 73%
    12:00 +20°C° 0.1 mm 5 mps 752 mmHg 66%
    13:00 +19°C° 0.1 mm 6 mps 753 mmHg 64%
    14:00 +19°C° 0.1 mm 6 mps 753 mmHg 62%
    15:00 +19°C° 0.1 mm 6 mps 753 mmHg 60%
    16:00 +17°C° 0 mm 6 mps 753 mmHg 65%
    17:00 +15°C° 0 mm 6 mps 754 mmHg 70%
    18:00 +14°C° 0 mm 5 mps 754 mmHg 75%
    19:00 +13°C° 0 mm 5 mps 755 mmHg 78%
    20:00 +13°C° 0 mm 5 mps 755 mmHg 82%
    21:00 +12°C° 0 mm 5 mps 756 mmHg 85%
    22:00 +12°C° 0 mm 5 mps 756 mmHg 85%
    23:00 +12°C° 0 mm 5 mps 757 mmHg 86%
    Mostrar más